Regional Weather Roundup
Issued by NWS

Home | Current Version | Previous Version | Text Only | Print | Product List | Glossary On
Versions: 1 2 3 4 5 6 7 8 9 10 11 12 13 14 15 16 17 18 19 20 21 22 23 24 25 26 27 28 29 30 31 32 33 34 35 36 37 38 39 40 41 42 43 44 45 46 47 48 49 50
000
ASUS45 KREV 231810
RWRNV
NEVADA REGIONAL WEATHER ROUNDUP
NATIONAL WEATHER SERVICE RENO NV
1100 AM PDT WED JUL 23 2014

NOTE: "FAIR" INDICATES FEW OR NO CLOUDS BELOW 12,000 FEET WITH NO
SIGNIFICANT WEATHER AND/OR OBSTRUCTIONS TO VISIBILITY.

NVZ001-003-004-231900-
WESTERN NEVADA

CITY           SKY/WX    TMP DP  RH WIND       PRES   REMARKS
RENO           MOSUNNY   81  34  18 SE8       30.16S
6HR MIN TEMP:  62; 6HR MAX TEMP:  81;

CARSON CITY    FAIR      79  34  19 S6        30.19S
SLIDE MTN        N/A     50  32  50 SW39        N/A
PYRAMID LAKE     N/A     81 N/A N/A E5          N/A
FALLON         MOSUNNY   82  39  21 W7        30.14S
6HR MIN TEMP:  60; 6HR MAX TEMP:  82;

LOVELOCK       SUNNY     81  40  23 VRB6      30.13F
6HR MIN TEMP:  55; 6HR MAX TEMP:  82; 6HR PCP: TRACE;

HAWTHORNE      SUNNY     82  41  23 N7        30.15F
$$

NVZ002-CAZ072-073-231900-
NORTHERN AND CENTRAL SIERRA

CITY           SKY/WX    TMP DP  RH WIND       PRES   REMARKS
S. LAKE TAHOE  SUNNY     73  34  23 S8G18     30.29S
6HR MIN TEMP:  47; 6HR MAX TEMP:  73;

SQUAW VLY 8000 NOT AVBL
BLUE CANYON    SUNNY     66  50  56 S12G18    30.30R
MAMMOTH LAKES  FAIR      79  21  11 E5        30.34S
BRIDGEPORT     FAIR      74  30  19 S15G24    30.29S
$$

NVZ030-031-036-231900-
NORTHERN NEVADA

CITY           SKY/WX    TMP DP  RH WIND       PRES   REMARKS
ELKO           SUNNY     87  27  11 VRB3      30.15F
6HR MIN TEMP:  56; 6HR MAX TEMP:  87;

WINNEMUCCA     SUNNY     81  39  22 SW10G18   30.14F
6HR MIN TEMP:  51; 6HR MAX TEMP:  82;

WENDOVER       SUNNY     93  28  10 E13       30.11F
$$

NVZ035-037-231900-
CENTRAL NEVADA

CITY           SKY/WX    TMP DP  RH WIND       PRES   REMARKS
ELY            SUNNY     90  26  10 S22G30    30.27S
6HR MIN TEMP:  49; 6HR MAX TEMP:  90;

EUREKA           N/A     88  17   7 S14G23    30.21F
6HR MIN TEMP:  51; 6HR MAX TEMP:  88;

$$

NVZ013-014-231900-
SOUTH CENTRAL NEVADA

CITY           SKY/WX    TMP DP  RH WIND       PRES   REMARKS
TONOPAH        SUNNY     86  21   9 S16       30.23F
6HR MIN TEMP:  58; 6HR MAX TEMP:  86;

$$

NVZ017-020-022-231900-
SOUTHERN NEVADA

CITY           SKY/WX    TMP DP  RH WIND       PRES   REMARKS
LAS VEGAS      MOSUNNY  102  29   7 SE10      29.95F
6HR MIN TEMP:  83; 6HR MAX TEMP: 102;

N. LAS VEGAS   SUNNY    100  23   6 SE7       29.98F
6HR MIN TEMP:  81; 6HR MAX TEMP: 100;

NELLIS AFB     SUNNY     99  32   9 SW5       29.96F
6HR MIN TEMP:  76; 6HR MAX TEMP:  99;

HENDERSON      SUNNY    102  29   8 SW13      30.01F
6HR MIN TEMP:  80; 6HR MAX TEMP: 102;

MERCURY        SUNNY     97  24   7 SW18G25   30.07F
6HR MIN TEMP:  68; 6HR MAX TEMP:  97;

$$


USA.gov is the U.S. government's official web portal to all federal, state and local government web resources and services.